{"data":{"norad_id":54655,"epoch":"2026-05-25T00:48:33.179904Z","epoch_age_seconds":72875,"freshness":"FRESH","line1":"1 54655U 22166P   26145.03371736  .00000058  00000+0  10990-3 0  9994","line2":"2 54655  87.9250 248.5886 0002846  96.5604 263.5854 13.21827413168481","mean_motion":13.21827413,"eccentricity":0.0002846,"inclination_deg":87.925,"raan_deg":248.5886,"arg_perigee_deg":96.5604,"mean_anomaly_deg":263.5854,"bstar":0.0001099,"rev_number":16848,"period_min":108.94009201487,"perigee_km":1175.597578797,"apogee_km":1179.8983885297,"semimajor_km":7555.8849836634,"source":"CELESTRAK","updated_at":"2026-05-25T13:38:22.630613Z"}}